| time (UTC) | temp C | wind direction | speed KPH | gust KPH | rain 1hr cm | rain 24hr cm | rain mn cm | humidity % | barometer mb |
| 20260510071557 | 21 | 5 | 0.0 | 3.2 | 0.00 | 0.00 | 0.00 | 71 | 1002.9 |
| 20260510070046 | 21 | 5 | 0.0 | 4.8 | 0.00 | 0.00 | 0.00 | 70 | 1003.1 |
| 20260510064553 | 22 | 5 | 0.0 | 3.2 | 0.00 | 0.00 | 0.00 | 69 | 1003.2 |
| 20260510063046 | 22 | 5 | 0.0 | 3.2 | 0.00 | 0.00 | 0.00 | 67 | 1003.4 |
| 20260510061539 | 22 | 5 | 0.0 | 1.6 | 0.00 | 0.00 | 0.00 | 65 | 1003.4 |
| 20260510060037 | 22 | 5 | 0.0 | 8.0 | 0.00 | 0.00 | 0.00 | 64 | 1003.5 |
| 20260510054536 | 23 | 5 | 0.0 | 1.6 | 0.00 | 0.00 | 0.00 | 64 | 1003.5 |
| 20260510053037 | 23 | 5 | 0.0 | 1.6 | 0.00 | 0.00 | 0.00 | 64 | 1003.4 |
| 20260510051537 | 23 | 5 | 0.0 | 0.0 | 0.00 | 0.00 | 0.00 | 63 | 1003.5 |
| 20260510050036 | 23 | 5 | 0.0 | 3.2 | 0.00 | 0.00 | 0.00 | 62 | 1003.5 |
| 20260510044539 | 23 | 5 | 0.0 | 3.2 | 0.00 | 0.00 | 0.00 | 62 | 1003.6 |
| 20260510043029 | 23 | 5 | 0.0 | 0.0 | 0.00 | 0.00 | 0.00 | 60 | 1003.6 |
| 20260510041528 | 23 | 5 | 0.0 | 0.0 | 0.00 | 0.00 | 0.00 | 57 | 1003.7 |
| 20260510040030 | 24 | 5 | 0.0 | 1.6 | 0.00 | 0.00 | 0.00 | 54 | 1003.6 |
| 20260510034534 | 25 | 5 | 0.0 | 3.2 | 0.00 | 0.00 | 0.00 | 52 | 1003.6 |
| 20260510033027 | 25 | 5 | 0.0 | 1.6 | 0.00 | 0.00 | 0.00 | 50 | 1003.6 |
| 20260510031531 | 25 | 5 | 0.0 | 1.6 | 0.00 | 0.00 | 0.00 | 49 | 1003.7 |
| 20260510030026 | 25 | 5 | 0.0 | 0.0 | 0.00 | 0.00 | 0.00 | 49 | 1003.7 |
| 20260510024524 | 25 | 5 | 0.0 | 0.0 | 0.00 | 0.00 | 0.00 | 48 | 1003.7 |
| 20260510023024 | 25 | 5 | 0.0 | 0.0 | 0.00 | 0.00 | 0.00 | 47 | 1003.6 |
| 20260510021533 | 26 | 5 | 0.0 | 0.0 | 0.00 | 0.00 | 0.00 | 45 | 1003.3 |
| 20260510020023 | 26 | 5 | 0.0 | 1.6 | 0.00 | 0.00 | 0.00 | 45 | 1003.1 |
| 20260510014522 | 26 | 5 | 0.0 | 0.0 | 0.00 | 0.00 | 0.00 | 45 | 1002.8 |
| 20260510013022 | 26 | 5 | 0.0 | 0.0 | 0.00 | 0.00 | 0.00 | 42 | 1002.7 |
| 20260510011522 | 27 | 5 | 0.0 | 0.0 | 0.00 | 0.00 | 0.00 | 40 | 1002.7 |
| 20260510010021 | 28 | 5 | 0.0 | 0.0 | 0.00 | 0.00 | 0.00 | 39 | 1002.7 |
| 20260510004520 | 28 | 5 | 0.0 | 0.0 | 0.00 | 0.00 | 0.00 | 38 | 1002.7 |
| 20260510003023 | 29 | 5 | 0.0 | 1.6 | 0.00 | 0.00 | 0.00 | 37 | 1002.8 |
| 20260510001520 | 29 | 5 | 0.0 | 0.0 | 0.00 | 0.00 | 0.00 | 36 | 1002.8 |
| 20260510000020 | 30 | 5 | 0.0 | 1.6 | 0.00 | 0.00 | 0.00 | 36 | 1002.7 |
| 20260509234521 | 30 | 5 | 0.0 | 1.6 | 0.00 | 0.00 | 0.00 | 35 | 1002.7 |
| 20260509233017 | 30 | 5 | 0.0 | 1.6 | 0.00 | 0.00 | 0.00 | 35 | 1002.9 |
| 20260509231516 | 30 | 5 | 0.0 | 0.0 | 0.00 | 0.00 | 0.00 | 33 | 1002.9 |
| 20260509230015 | 31 | 5 | 0.0 | 0.0 | 0.00 | 0.00 | 0.00 | 33 | 1003.1 |
| 20260509224514 | 31 | 5 | 0.0 | 0.0 | 0.00 | 0.00 | 0.00 | 32 | 1003.0 |
| 20260509223014 | 31 | 5 | 0.0 | 3.2 | 0.00 | 0.00 | 0.00 | 31 | 1003.0 |
| 20260509221519 | 32 | 5 | 0.0 | 0.0 | 0.00 | 0.00 | 0.00 | 33 | 1003.0 |
| 20260509220012 | 32 | 5 | 0.0 | 1.6 | 0.00 | 0.00 | 0.00 | 32 | 1003.0 |
| 20260509214511 | 32 | 5 | 0.0 | 0.0 | 0.00 | 0.00 | 0.00 | 32 | 1003.2 |
| 20260509213010 | 32 | 5 | 0.0 | 4.8 | 0.00 | 0.00 | 0.00 | 34 | 1003.3 |
| 20260509211512 | 32 | 5 | 0.0 | 0.0 | 0.00 | 0.00 | 0.00 | 32 | 1003.6 |
| 20260509210010 | 32 | 5 | 0.0 | 0.0 | 0.00 | 0.00 | 0.00 | 32 | 1003.9 |
| 20260509204506 | 32 | 5 | 0.0 | 3.2 | 0.00 | 0.00 | 0.00 | 34 | 1004.1 |
| 20260509203005 | 32 | 5 | 0.0 | 1.6 | 0.00 | 0.00 | 0.00 | 36 | 1004.3 |
| 20260509201501 | 32 | 5 | 0.0 | 3.2 | 0.00 | 0.00 | 0.00 | 33 | 1004.4 |
| 20260509200105 | 32 | 5 | 0.0 | 1.6 | 0.00 | 0.00 | 0.00 | 33 | 1004.6 |
| 20260509194558 | 32 | 5 | 0.0 | 0.0 | 0.00 | 0.00 | 0.00 | 36 | 1004.8 |
| 20260509193053 | 32 | 5 | 0.0 | 1.6 | 0.00 | 0.00 | 0.00 | 37 | 1005.1 |
| 20260509191554 | 31 | 5 | 0.0 | 12.9 | 0.00 | 0.00 | 0.00 | 38 | 1005.3 |
| 20260509190104 | 32 | 5 | 0.0 | 1.6 | 0.00 | 0.00 | 0.00 | 38 | 1005.4 |
| 20260509184548 | 31 | 5 | 0.0 | 1.6 | 0.00 | 0.00 | 0.00 | 40 | 1005.6 |
| 20260509183045 | 31 | 5 | 0.0 | 1.6 | 0.00 | 0.00 | 0.00 | 41 | 1005.7 |
| 20260509181546 | 31 | 5 | 0.0 | 0.0 | 0.00 | 0.00 | 0.00 | 40 | 1006.0 |
| 20260509180048 | 31 | 5 | 0.0 | 0.0 | 0.00 | 0.00 | 0.00 | 43 | 1006.1 |
| 20260509174542 | 31 | 5 | 0.0 | 0.0 | 0.00 | 0.00 | 0.00 | 44 | 1006.3 |
| 20260509173039 | 30 | 5 | 0.0 | 0.0 | 0.00 | 0.00 | 0.00 | 43 | 1006.5 |
| 20260509171539 | 30 | 5 | 0.0 | 1.6 | 0.00 | 0.00 | 0.00 | 47 | 1006.7 |
| 20260509170032 | 29 | 5 | 0.0 | 0.0 | 0.00 | 0.00 | 0.00 | 49 | 1006.9 |
| 20260509164527 | 28 | 5 | 0.0 | 0.0 | 0.00 | 0.00 | 0.00 | 52 | 1006.9 |
| 20260509163026 | 27 | 5 | 0.0 | 0.0 | 0.00 | 0.00 | 0.00 | 55 | 1007.0 |
| 20260509161520 | 27 | 5 | 0.0 | 1.6 | 0.00 | 0.00 | 0.00 | 57 | 1007.1 |
| 20260509160017 | 26 | 5 | 0.0 | 0.0 | 0.00 | 0.00 | 0.00 | 61 | 1007.0 |
| 20260509154518 | 26 | 5 | 0.0 | 0.0 | 0.00 | 0.00 | 0.00 | 62 | 1007.1 |
| 20260509153011 | 25 | 5 | 0.0 | 0.0 | 0.00 | 0.00 | 0.00 | 67 | 1007.1 |
| 20260509151509 | 25 | 5 | 0.0 | 0.0 | 0.00 | 0.00 | 0.00 | 68 | 1007.3 |
| 20260509150010 | 23 | 5 | 0.0 | 0.0 | 0.00 | 0.00 | 0.00 | 71 | 1007.4 |
| 20260509144500 | 23 | 5 | 0.0 | 0.0 | 0.00 | 0.00 | 0.00 | 75 | 1007.5 |
| 20260509143058 | 22 | 5 | 0.0 | 0.0 | 0.00 | 0.00 | 0.00 | 78 | 1007.8 |
| 20260509141553 | 21 | 5 | 0.0 | 0.0 | 0.00 | 0.00 | 0.00 | 81 | 1007.9 |
| 20260509140059 | 20 | 5 | 0.0 | 0.0 | 0.00 | 0.00 | 0.00 | 81 | 1007.9 |
| 20260509134620 | 19 | 5 | 0.0 | 0.0 | 0.00 | 0.00 | 0.00 | 61 | 1008.0 |
| 20260509133047 | 18 | 5 | 0.0 | 0.0 | 0.00 | 0.00 | 0.00 | 60 | 1007.9 |
| 20260509131644 | 17 | 5 | 0.0 | 0.0 | 0.00 | 0.00 | 0.00 | 62 | 1007.9 |
| 20260509130044 | 17 | 5 | 0.0 | 0.0 | 0.00 | 0.00 | 0.00 | 64 | 1007.6 |
| 20260509124543 | 17 | 5 | 0.0 | 0.0 | 0.00 | 0.00 | 0.00 | 65 | 1007.6 |
| 20260509123042 | 17 | 5 | 0.0 | 0.0 | 0.00 | 0.00 | 0.00 | 66 | 1007.6 |
| 20260509121540 | 17 | 5 | 0.0 | 0.0 | 0.00 | 0.00 | 0.00 | 67 | 1007.5 |
| 20260509120039 | 17 | 5 | 0.0 | 0.0 | 0.00 | 0.00 | 0.00 | 67 | 1007.4 |
| 20260509114543 | 17 | 5 | 0.0 | 0.0 | 0.00 | 0.00 | 0.00 | 71 | 1007.0 |
| 20260509113037 | 17 | 5 | 0.0 | 0.0 | 0.00 | 0.00 | 0.00 | 74 | 1006.8 |
| 20260509111536 | 17 | 5 | 0.0 | 0.0 | 0.00 | 0.00 | 0.00 | 76 | 1006.6 |
| 20260509110035 | 17 | 5 | 0.0 | 0.0 | 0.00 | 0.00 | 0.00 | 79 | 1006.6 |
| 20260509104535 | 17 | 5 | 0.0 | 0.0 | 0.00 | 0.00 | 0.00 | 79 | 1006.6 |
| 20260509103034 | 17 | 5 | 0.0 | 0.0 | 0.00 | 0.00 | 0.00 | 79 | 1006.6 |
| 20260509101546 | 17 | 5 | 0.0 | 0.0 | 0.00 | 0.00 | 0.00 | 81 | 1006.6 |
| 20260509100033 | 17 | 5 | 0.0 | 0.0 | 0.00 | 0.00 | 0.00 | 82 | 1006.8 |
| 20260509094531 | 17 | 5 | 0.0 | 0.0 | 0.00 | 0.00 | 0.00 | 83 | 1006.8 |
| 20260509093032 | 17 | 5 | 0.0 | 0.0 | 0.00 | 0.00 | 0.00 | 82 | 1006.9 |
| 20260509091526 | 18 | 5 | 0.0 | 0.0 | 0.00 | 0.00 | 0.00 | 82 | 1006.9 |
| 20260509090027 | 18 | 5 | 0.0 | 4.8 | 0.00 | 0.00 | 0.00 | 80 | 1006.7 |
| 20260509084526 | 18 | 5 | 0.0 | 19.3 | 0.00 | 0.00 | 0.00 | 73 | 1007.3 |
| 20260509083023 | 18 | 5 | 1.6 | 14.5 | 0.00 | 0.00 | 0.00 | 67 | 1007.4 |
| 20260509081528 | 19 | 5 | 0.0 | 17.7 | 0.00 | 0.00 | 0.00 | 65 | 1007.4 |
| 20260509080022 | 18 | 5 | 0.0 | 6.4 | 0.00 | 0.00 | 0.00 | 64 | 1007.8 |
| 20260509074522 | 18 | 5 | 0.0 | 0.0 | 0.00 | 0.00 | 0.00 | 65 | 1007.9 |
| 20260509073021 | 18 | 5 | 0.0 | 3.2 | 0.00 | 0.00 | 0.00 | 66 | 1008.2 |